Weather History for Ogden, UT

Change the Weather History Date:

Friday, July 5, 2013

  Actual Average Record
Temperature  
Mean Temperature 76 °F -  
Max Temperature 88 °F 91 °F 102 °F (1981)
Min Temperature 64 °F 55 °F 44 °F (1993)
Cooling Degree Days 11    
Growing Degree Days 26 (Base 50)    
Moisture  
Dew Point 54 °F    
Average Humidity 48    
Maximum Humidity 87    
Minimum Humidity 26    
Precipitation  
Precipitation 0.06 in - - ()
Sea Level Pressure  
Sea Level Pressure 29.78 in    
Wind  
Wind Speed 11 mph (SW)    
Max Wind Speed 23 mph    
Max Gust Speed 40 mph    
Visibility 10 miles    
Events Rain , Thunderstorm    
Averages and records for this station are not official NWS values.
T = Trace of Precipitation, MM = Missing Value Source: NWS Daily Summary

Daily Weather History Graph

Daily Weather History Graph

Search for Another Location

Airport:

Trip Planner

Search our weather history database for the weather conditions in past years. The results will help you decide how hot, cold, wet, or windy it might be!

Date:

Astronomy

Jul. 05, 2013 Rise Set
Actual Time 6:01 AM MDT 9:03 PM MDT
Civil Twilight 5:28 AM MDT 9:37 PM MDT
Nautical Twilight 4:45 AM MDT 10:19 PM MDT
Astronomical Twilight 3:55 AM MDT 11:09 PM MDT
Moon 4:04 AM MDT (7/5) 7:01 PM MDT (7/5)
Length of Visible Light 16h 09m
Length of Day
15h 02m
Waning Crescent, 6% of the Moon is Illuminated
Jul 5
Waning Crescent
Jul 8
New
Jul 15
First Quarter
Jul 22
Full
Jul 29
Last Quarter

Hourly Weather History & Observations

Time (MDT) Temp. Heat Index Dew Point Humidity Pressure Visibility Wind Dir Wind Speed Gust Speed Precip Events Conditions
12:53 AM 75.9 °F - 57.0 °F 52% 29.73 in 10.0 mi NNW 16.1 mph 24.2 mph N/A   Clear
1:53 AM 73.9 °F - 52.0 °F 46% 29.80 in 10.0 mi NNW 17.3 mph 27.6 mph N/A   Mostly Cloudy
2:53 AM 68.0 °F - 57.9 °F 70% 29.87 in 7.0 mi North 6.9 mph - 0.02 in Rain Light Rain
3:53 AM 66.0 °F - 60.1 °F 81% 29.81 in 10.0 mi NE 6.9 mph - 0.04 in   Mostly Cloudy
4:53 AM 66.0 °F - 59.0 °F 78% 29.77 in 10.0 mi SSW 5.8 mph - N/A   Clear
5:53 AM 64.9 °F - 59.0 °F 81% 29.75 in 10.0 mi SSE 10.4 mph - N/A   Clear
6:53 AM 64.9 °F - 61.0 °F 87% 29.76 in 10.0 mi South 12.7 mph - N/A   Clear
7:53 AM 69.1 °F - 59.0 °F 70% 29.77 in 10.0 mi SSE 9.2 mph - N/A   Clear
8:53 AM 72.0 °F - 57.9 °F 61% 29.79 in 10.0 mi SSE 6.9 mph - N/A   Clear
9:53 AM 75.0 °F - 57.0 °F 53% 29.80 in 10.0 mi South 5.8 mph - N/A   Clear
10:53 AM 78.1 °F - 55.0 °F 45% 29.78 in 10.0 mi SSE 4.6 mph - N/A   Clear
11:53 AM 79.0 °F - 55.9 °F 45% 29.79 in 10.0 mi WSW 5.8 mph - N/A   Clear
12:53 PM 81.0 °F 81.1 °F 57.9 °F 45% 29.77 in 10.0 mi Variable 3.5 mph - N/A   Clear
1:53 PM 84.0 °F 83.0 °F 55.9 °F 38% 29.75 in 10.0 mi Variable 3.5 mph - N/A   Clear
2:53 PM 86.0 °F - 52.0 °F 31% 29.72 in 10.0 mi WSW 4.6 mph - N/A   Clear
3:53 PM 88.0 °F - 48.9 °F 26% 29.69 in 10.0 mi Variable 4.6 mph - N/A   Clear
4:53 PM 87.1 °F - 51.1 °F 29% 29.66 in 10.0 mi West 6.9 mph - N/A   Clear
5:53 PM 84.9 °F - 50.0 °F 30% 29.68 in 10.0 mi West 5.8 mph - N/A   Clear
6:38 PM 78.8 °F - 53.6 °F 42% 29.88 in 10.0 mi West 21.9 mph 40.3 mph 0.00 in Rain , Thunderstorm Light Rain
6:53 PM 79.0 °F - 53.1 °F 40% 29.73 in 10.0 mi WSW 12.7 mph 26.5 mph 0.00 in Thunderstorm Overcast
7:12 PM 80.6 °F - 46.4 °F 30% 29.88 in 10.0 mi Calm Calm - N/A   Overcast
7:38 PM 78.8 °F - 50.0 °F 36% 29.89 in 10.0 mi NE 15.0 mph - N/A   Scattered Clouds
7:53 PM 79.0 °F - 48.0 °F 34% 29.71 in 10.0 mi NNE 13.8 mph - N/A   Clear
8:53 PM 77.0 °F - 48.0 °F 36% 29.74 in 10.0 mi NW 10.4 mph - N/A   Clear
9:21 PM 75.2 °F - 46.4 °F 36% 29.91 in 10.0 mi ENE 23.0 mph 33.4 mph N/A   Clear
9:53 PM 75.9 °F - 46.9 °F 36% 29.76 in 10.0 mi NE 9.2 mph 20.7 mph N/A   Scattered Clouds
10:53 PM 72.0 °F - 53.1 °F 51% 29.74 in 9.0 mi SE 20.7 mph 29.9 mph 0.00 in Rain Light Rain
11:00 PM 73.4 °F - 51.8 °F 47% 29.92 in 10.0 mi ESE 18.4 mph 28.8 mph 0.00 in Rain Light Rain
11:53 PM 71.1 °F - 50.0 °F 47% 29.74 in 10.0 mi NNW 4.6 mph - 0.00 in   Clear